| time (UTC) | temp F | wind direction | speed MPH | gust MPH | rain 1hr in | rain 24hr in | rain mn in | humidity % | barometer mb |
| 20260510173339 | 73 | 276 | 6.0 | 15.0 | 0.00 | 0.04 | 0.01 | 37 | 1010.4 |
| 20260510172344 | 73 | 197 | 6.0 | 17.0 | 0.00 | 0.04 | 0.01 | 38 | 1010.2 |
| 20260510171354 | 73 | 209 | 9.0 | 16.0 | 0.00 | 0.04 | 0.01 | 39 | 1010.1 |
| 20260510170345 | 74 | 214 | 5.0 | 14.0 | 0.00 | 0.04 | 0.01 | 38 | 1010.1 |
| 20260510165349 | 75 | 208 | 9.0 | 13.0 | 0.00 | 0.04 | 0.01 | 40 | 1010.0 |
| 20260510164353 | 74 | 253 | 7.0 | 14.0 | 0.00 | 0.30 | 0.01 | 38 | 1010.0 |
| 20260510163337 | 74 | 255 | 4.0 | 14.0 | 0.00 | 0.30 | 0.01 | 39 | 1010.0 |
| 20260510162354 | 75 | 234 | 5.0 | 14.0 | 0.00 | 0.30 | 0.01 | 39 | 1009.9 |
| 20260510161342 | 75 | 249 | 5.0 | 12.0 | 0.00 | 0.30 | 0.01 | 40 | 1010.0 |
| 20260510160347 | 75 | 192 | 8.0 | 16.0 | 0.00 | 0.30 | 0.01 | 40 | 1009.9 |
| 20260510155350 | 75 | 220 | 9.0 | 20.0 | 0.00 | 0.30 | 0.01 | 40 | 1009.8 |
| 20260510154337 | 74 | 206 | 10.0 | 23.0 | 0.00 | 0.43 | 0.01 | 40 | 1009.8 |
| 20260510153342 | 75 | 214 | 12.0 | 17.0 | 0.00 | 0.43 | 0.01 | 40 | 1009.9 |
| 20260510152340 | 75 | 229 | 6.0 | 17.0 | 0.00 | 0.43 | 0.01 | 39 | 1010.0 |
| 20260510151340 | 75 | 193 | 8.0 | 21.0 | 0.00 | 0.43 | 0.01 | 39 | 1010.0 |
| 20260510150400 | 75 | 203 | 9.0 | 15.0 | 0.00 | 0.43 | 0.01 | 38 | 1010.3 |
| 20260510145356 | 76 | 265 | 7.0 | 13.0 | 0.00 | 0.43 | 0.01 | 40 | 1010.2 |
| 20260510144340 | 75 | 271 | 6.0 | 16.0 | 0.00 | 0.57 | 0.01 | 41 | 1010.2 |
| 20260510143344 | 75 | 211 | 5.0 | 18.0 | 0.00 | 0.57 | 0.01 | 42 | 1010.5 |
| 20260510142340 | 74 | 276 | 9.0 | 17.0 | 0.00 | 0.57 | 0.01 | 44 | 1010.7 |
| 20260510141341 | 75 | 191 | 7.0 | 13.0 | 0.00 | 0.57 | 0.01 | 45 | 1010.6 |
| 20260510140341 | 76 | 239 | 6.0 | 11.0 | 0.00 | 0.57 | 0.01 | 44 | 1010.9 |
| 20260510135340 | 75 | 215 | 6.0 | 15.0 | 0.00 | 0.57 | 0.01 | 43 | 1011.0 |
| 20260510134345 | 75 | 238 | 5.0 | 17.0 | 0.00 | 0.58 | 0.01 | 43 | 1011.1 |
| 20260510133346 | 75 | 259 | 5.0 | 18.0 | 0.00 | 0.58 | 0.01 | 43 | 1011.1 |
| 20260510132344 | 75 | 236 | 7.0 | 12.0 | 0.00 | 0.58 | 0.01 | 46 | 1011.2 |
| 20260510131348 | 74 | 278 | 6.0 | 15.0 | 0.00 | 0.58 | 0.01 | 45 | 1011.4 |
| 20260510130354 | 74 | 243 | 7.0 | 16.0 | 0.00 | 0.58 | 0.01 | 47 | 1011.5 |
| 20260510125346 | 74 | 246 | 9.0 | 17.0 | 0.00 | 0.58 | 0.01 | 46 | 1011.6 |
| 20260510124350 | 74 | 258 | 10.0 | 15.0 | 0.00 | 0.58 | 0.01 | 45 | 1011.6 |
| 20260510123352 | 74 | 268 | 11.0 | 15.0 | 0.00 | 0.58 | 0.01 | 44 | 1011.6 |
| 20260510122351 | 73 | 241 | 9.0 | 14.0 | 0.00 | 0.58 | 0.01 | 45 | 1011.9 |
| 20260510121353 | 74 | 255 | 11.0 | 14.0 | 0.00 | 0.58 | 0.01 | 42 | 1011.9 |
| 20260510120353 | 74 | 241 | 6.0 | 12.0 | 0.00 | 0.58 | 0.01 | 43 | 1012.0 |
| 20260510115352 | 73 | 232 | 8.0 | 16.0 | 0.00 | 0.58 | 0.01 | 46 | 1012.0 |
| 20260510114350 | 73 | 280 | 9.0 | 14.0 | 0.00 | 0.58 | 0.01 | 48 | 1012.2 |
| 20260510113340 | 73 | 239 | 5.0 | 13.0 | 0.00 | 0.58 | 0.01 | 49 | 1012.3 |
| 20260510112337 | 72 | 228 | 4.0 | 14.0 | 0.00 | 0.58 | 0.01 | 53 | 1012.4 |
| 20260510111358 | 72 | 317 | 8.0 | 14.0 | 0.00 | 0.58 | 0.01 | 54 | 1012.5 |
| 20260510110358 | 72 | 214 | 5.0 | 14.0 | 0.00 | 0.58 | 0.01 | 55 | 1012.6 |
| 20260510105356 | 71 | 249 | 6.0 | 17.0 | 0.00 | 0.58 | 0.01 | 56 | 1012.6 |
| 20260510104354 | 70 | 273 | 6.0 | 15.0 | 0.00 | 0.58 | 0.01 | 58 | 1012.7 |
| 20260510103357 | 70 | 276 | 9.0 | 14.0 | 0.00 | 0.58 | 0.01 | 58 | 1012.8 |
| 20260510102352 | 69 | 272 | 7.0 | 13.0 | 0.00 | 0.58 | 0.01 | 62 | 1012.8 |
| 20260510101354 | 69 | 245 | 8.0 | 14.0 | 0.00 | 0.58 | 0.01 | 63 | 1013.0 |
| 20260510100354 | 68 | 272 | 4.0 | 10.0 | 0.00 | 0.58 | 0.01 | 63 | 1013.0 |
| 20260510095352 | 68 | 234 | 7.0 | 11.0 | 0.00 | 0.58 | 0.01 | 63 | 1013.3 |
| 20260510094355 | 67 | 238 | 6.0 | 12.0 | 0.00 | 0.58 | 0.01 | 66 | 1013.2 |
| 20260510093356 | 67 | 258 | 7.0 | 14.0 | 0.00 | 0.58 | 0.01 | 66 | 1013.2 |
| 20260510092354 | 66 | 244 | 9.0 | 13.0 | 0.00 | 0.58 | 0.01 | 68 | 1013.3 |
| 20260510091338 | 66 | 258 | 10.0 | 17.0 | 0.00 | 0.58 | 0.01 | 68 | 1013.2 |
| 20260510090347 | 66 | 248 | 12.0 | 18.0 | 0.00 | 0.58 | 0.01 | 71 | 1013.2 |
| 20260510085348 | 65 | 238 | 4.0 | 14.0 | 0.00 | 0.58 | 0.01 | 75 | 1013.2 |
| 20260510084356 | 64 | 257 | 9.0 | 16.0 | 0.00 | 0.58 | 0.01 | 79 | 1013.2 |
| 20260510083341 | 63 | 257 | 8.0 | 15.0 | 0.00 | 0.58 | 0.01 | 93 | 1013.4 |
| 20260510082343 | 62 | 279 | 6.0 | 15.0 | 0.00 | 0.58 | 0.01 | 100 | 1013.4 |
| 20260510081352 | 61 | 228 | 12.0 | 17.0 | 0.00 | 0.58 | 0.01 | 100 | 1013.3 |
| 20260510080357 | 61 | 261 | 4.0 | 12.0 | 0.00 | 0.58 | 0.01 | 100 | 1013.3 |
| 20260510075350 | 60 | 289 | 3.0 | 13.0 | 0.00 | 0.58 | 0.01 | 100 | 1013.2 |
| 20260510074354 | 59 | 266 | 6.0 | 11.0 | 0.00 | 0.58 | 0.01 | 100 | 1013.3 |
| 20260510073342 | 58 | 243 | 2.0 | 5.0 | 0.00 | 0.58 | 0.01 | 100 | 1013.3 |
| 20260510072340 | 57 | 226 | 1.0 | 5.0 | 0.00 | 0.58 | 0.01 | 100 | 1013.3 |
| 20260510071345 | 56 | 236 | 2.0 | 5.0 | 0.00 | 0.58 | 0.01 | 100 | 1013.4 |
| 20260510070349 | 56 | 232 | 1.0 | 4.0 | 0.00 | 0.58 | 0.01 | 100 | 1013.3 |
| 20260510065346 | 55 | 226 | 3.0 | 6.0 | 0.00 | 0.58 | 0.01 | 100 | 1013.2 |
| 20260510064354 | 55 | 215 | 2.0 | 5.0 | 0.00 | 0.58 | 0.01 | 100 | 1013.1 |
| 20260510063342 | 55 | 211 | 3.0 | 4.0 | 0.00 | 0.58 | 0.01 | 100 | 1013.2 |
| 20260510062345 | 54 | 208 | 3.0 | 5.0 | 0.00 | 0.58 | 0.01 | 100 | 1013.2 |
| 20260510061350 | 54 | 212 | 3.0 | 5.0 | 0.00 | 0.58 | 0.01 | 100 | 1013.1 |
| 20260510060354 | 54 | 216 | 2.0 | 5.0 | 0.00 | 0.58 | 0.01 | 100 | 1013.1 |
| 20260510055352 | 54 | 218 | 1.0 | 3.0 | 0.00 | 0.58 | 0.01 | 100 | 1013.2 |
| 20260510054340 | 54 | 218 | 2.0 | 3.0 | 0.00 | 0.58 | 0.01 | 100 | 1013.2 |
| 20260510053350 | 54 | 218 | 1.0 | 4.0 | 0.00 | 0.58 | 0.01 | 100 | 1013.2 |
| 20260510052345 | 54 | 219 | 2.0 | 4.0 | 0.00 | 0.58 | 0.01 | 100 | 1013.2 |
| 20260510051353 | 53 | 238 | 1.0 | 4.0 | 0.00 | 0.58 | 0.01 | 100 | 1013.2 |
| 20260510050341 | 53 | 237 | 2.0 | 5.0 | 0.00 | 0.58 | 0.01 | 100 | 1013.2 |
| 20260510045339 | 53 | 223 | 1.0 | 4.0 | 0.00 | 0.58 | 0.01 | 100 | 1013.0 |
| 20260510044356 | 53 | 217 | 1.0 | 6.0 | 0.00 | 0.58 | 0.01 | 100 | 1012.9 |
| 20260510043341 | 53 | 230 | 4.0 | 6.0 | 0.00 | 0.58 | 0.01 | 100 | 1013.1 |
| 20260510042342 | 53 | 231 | 2.0 | 4.0 | 0.00 | 0.58 | 0.01 | 100 | 1013.1 |
| 20260510041347 | 54 | 228 | 1.0 | 4.0 | 0.00 | 0.58 | 0.01 | 100 | 1013.2 |
| 20260510040348 | 54 | 223 | 2.0 | 4.0 | 0.00 | 0.58 | 0.01 | 100 | 1013.2 |
| 20260510035354 | 54 | 223 | 1.0 | 4.0 | 0.00 | 0.58 | 0.01 | 100 | 1013.1 |
| 20260510034339 | 54 | 227 | 2.0 | 4.0 | 0.00 | 0.58 | 0.01 | 100 | 1013.1 |
| 20260510033347 | 54 | 223 | 1.0 | 4.0 | 0.00 | 0.58 | 0.01 | 100 | 1013.2 |
| 20260510032347 | 54 | 221 | 2.0 | 4.0 | 0.00 | 0.58 | 0.01 | 100 | 1013.2 |
| 20260510031353 | 55 | 221 | 2.0 | 3.0 | 0.00 | 0.58 | 0.01 | 100 | 1013.2 |
| 20260510030340 | 55 | 222 | 2.0 | 4.0 | 0.01 | 0.58 | 0.01 | 100 | 1013.2 |
| 20260510025339 | 55 | 223 | 2.0 | 4.0 | 0.01 | 0.58 | 0.01 | 100 | 1013.3 |
| 20260510024345 | 55 | 224 | 2.0 | 2.0 | 0.01 | 0.58 | 0.01 | 100 | 1013.5 |
| 20260510023353 | 54 | 223 | 1.0 | 3.0 | 0.01 | 0.58 | 0.01 | 100 | 1013.4 |
| 20260510022353 | 55 | 223 | 2.0 | 4.0 | 0.01 | 0.58 | 0.00 | 100 | 1013.7 |
| 20260510021342 | 55 | 204 | 0.0 | 0.0 | 0.01 | 0.58 | 0.00 | 100 | 1013.7 |
| 20260510020345 | 56 | 204 | 0.0 | 0.0 | 0.00 | 0.57 | 0.00 | 100 | 1013.4 |
| 20260510015349 | 56 | 203 | 0.0 | 3.0 | 0.00 | 0.57 | 0.00 | 100 | 1013.4 |
| 20260510014356 | 56 | 203 | 1.0 | 3.0 | 0.00 | 0.57 | 0.00 | 100 | 1013.4 |
| 20260510013338 | 56 | 201 | 0.0 | 0.0 | 0.00 | 0.57 | 0.00 | 100 | 1013.2 |
| 20260510012353 | 56 | 201 | 0.0 | 0.0 | 0.00 | 0.57 | 0.00 | 100 | 1013.2 |
| 20260510011357 | 56 | 201 | 0.0 | 1.0 | 0.00 | 0.57 | 0.00 | 100 | 1013.4 |
| 20260510010341 | 56 | 201 | 0.0 | 2.0 | 0.00 | 0.57 | 0.00 | 100 | 1013.2 |
| 20260510005349 | 56 | 201 | 0.0 | 1.0 | 0.00 | 0.57 | 0.00 | 100 | 1013.4 |
| 20260510004352 | 57 | 201 | 0.0 | 0.0 | 0.00 | 0.57 | 0.00 | 100 | 1013.5 |
| 20260510003352 | 57 | 201 | 0.0 | 0.0 | 0.00 | 0.57 | 0.00 | 100 | 1013.6 |
| 20260510002350 | 57 | 201 | 0.0 | 1.0 | 0.00 | 0.57 | 0.00 | 100 | 1013.7 |
| 20260510001354 | 57 | 201 | 0.0 | 1.0 | 0.00 | 0.57 | 0.00 | 100 | 1013.8 |
| 20260510000342 | 57 | 201 | 1.0 | 3.0 | 0.00 | 0.57 | 0.00 | 100 | 1014.0 |
| 20260509235349 | 57 | 201 | 0.0 | 3.0 | 0.00 | 0.57 | 0.00 | 100 | 1014.2 |
| 20260509234354 | 58 | 201 | 0.0 | 0.0 | 0.00 | 0.57 | 0.00 | 100 | 1014.1 |
| 20260509233338 | 58 | 201 | 0.0 | 0.0 | 0.00 | 0.57 | 0.00 | 100 | 1014.3 |
| 20260509232355 | 58 | 201 | 0.0 | 0.0 | 0.00 | 0.57 | 0.00 | 100 | 1014.4 |
| 20260509231344 | 58 | 201 | 0.0 | 2.0 | 0.00 | 0.57 | 0.00 | 100 | 1014.3 |
| 20260509230346 | 58 | 201 | 0.0 | 0.0 | 0.00 | 0.57 | 0.00 | 100 | 1014.3 |
| 20260509225348 | 58 | 201 | 0.0 | 0.0 | 0.00 | 0.57 | 0.00 | 100 | 1014.3 |
| 20260509224353 | 58 | 201 | 0.0 | 0.0 | 0.00 | 0.57 | 0.00 | 100 | 1014.4 |
| 20260509223334 | 58 | 201 | 0.0 | 3.0 | 0.00 | 0.57 | 0.00 | 100 | 1014.3 |
| 20260509222341 | 58 | 201 | 1.0 | 2.0 | 0.00 | 0.57 | 0.00 | 100 | 1014.4 |
| 20260509221346 | 58 | 201 | 1.0 | 3.0 | 0.00 | 0.57 | 0.00 | 100 | 1014.4 |
| 20260509220354 | 58 | 201 | 0.0 | 0.0 | 0.00 | 0.57 | 0.00 | 100 | 1014.3 |
| 20260509215352 | 58 | 201 | 0.0 | 0.0 | 0.00 | 0.57 | 0.57 | 100 | 1014.3 |
| 20260509214355 | 58 | 201 | 0.0 | 0.0 | 0.00 | 0.57 | 0.57 | 100 | 1014.4 |
| 20260509213344 | 58 | 201 | 0.0 | 2.0 | 0.00 | 0.57 | 0.57 | 100 | 1014.2 |
| 20260509212349 | 58 | 201 | 0.0 | 1.0 | 0.00 | 0.57 | 0.57 | 100 | 1014.2 |
| 20260509211336 | 58 | 201 | 0.0 | 2.0 | 0.00 | 0.57 | 0.57 | 100 | 1014.1 |
| 20260509210341 | 58 | 201 | 1.0 | 3.0 | 0.00 | 0.57 | 0.57 | 100 | 1014.2 |
| 20260509205342 | 59 | 209 | 0.0 | 0.0 | 0.00 | 0.57 | 0.57 | 100 | 1014.1 |
| 20260509204351 | 59 | 209 | 0.0 | 2.0 | 0.00 | 0.57 | 0.57 | 100 | 1014.0 |
| 20260509203340 | 59 | 209 | 0.0 | 0.0 | 0.00 | 0.57 | 0.57 | 100 | 1013.8 |
| 20260509202354 | 59 | 208 | 0.0 | 0.0 | 0.00 | 0.57 | 0.57 | 100 | 1013.5 |
| 20260509201341 | 59 | 209 | 0.0 | 1.0 | 0.00 | 0.57 | 0.57 | 100 | 1013.2 |
| 20260509200347 | 59 | 208 | 0.0 | 0.0 | 0.00 | 0.57 | 0.57 | 100 | 1013.2 |
| 20260509195348 | 59 | 207 | 0.0 | 0.0 | 0.00 | 0.57 | 0.57 | 100 | 1013.0 |
| 20260509194350 | 59 | 207 | 0.0 | 2.0 | 0.00 | 0.57 | 0.57 | 100 | 1013.1 |
| 20260509193336 | 59 | 206 | 1.0 | 3.0 | 0.00 | 0.57 | 0.57 | 100 | 1012.9 |
| 20260509192339 | 59 | 202 | 2.0 | 3.0 | 0.00 | 0.57 | 0.57 | 100 | 1012.8 |
| 20260509191350 | 59 | 159 | 2.0 | 3.0 | 0.00 | 0.57 | 0.57 | 100 | 1012.6 |
| 20260509190337 | 58 | 60 | 0.0 | 0.0 | 0.00 | 0.57 | 0.57 | 100 | 1012.1 |
| 20260509185353 | 58 | 59 | 0.0 | 2.0 | 0.01 | 0.57 | 0.57 | 100 | 1012.0 |
| 20260509184338 | 58 | 60 | 0.0 | 2.0 | 0.01 | 0.57 | 0.57 | 100 | 1011.8 |
| 20260509183344 | 59 | 60 | 0.0 | 5.0 | 0.01 | 0.57 | 0.57 | 100 | 1011.8 |
| 20260509182343 | 59 | 56 | 4.0 | 7.0 | 0.01 | 0.57 | 0.57 | 99 | 1011.4 |
| 20260509181347 | 59 | 0 | 1.0 | 5.0 | 0.01 | 0.57 | 0.57 | 99 | 1011.6 |
| 20260509180353 | 59 | 89 | 0.0 | 3.0 | 0.02 | 0.57 | 0.57 | 99 | 1011.3 |
| 20260509175356 | 59 | 59 | 2.0 | 3.0 | 0.02 | 0.57 | 0.57 | 98 | 1011.2 |
| 20260509174357 | 59 | 54 | 1.0 | 4.0 | 0.06 | 0.57 | 0.57 | 97 | 1011.3 |